Arctic Village, AK

4:09 AM AKST on February 24, 2018 (GMT -0900)
Arctic Village

Weather History for PARC - January, 2013

Change the Weather History Date:

Tuesday, January 8, 2013

  Actual Average Record
Temperature  
Mean Temperature -25 °F -  
Max Temperature -18 °F -8 °F 15 °F (2005)
Min Temperature -32 °F -27 °F -64 °F (1972)
Degree Days  
Heating Degree Days 90    
Moisture  
Dew Point -26 °F    
Average Humidity 80    
Maximum Humidity 100    
Minimum Humidity 58    
Precipitation  
Precipitation 0.00 in - - ()
Sea Level Pressure  
Sea Level Pressure 29.67 in    
Wind  
Wind Speed 0 mph (North)    
Max Wind Speed 0 mph    
Max Gust Speed -    
Visibility 9 miles    
Events      
Averages and records for this station are not official NWS values.
T = Trace of Precipitation, MM = Missing Value Source: NWS Daily Summary

Daily Weather History Graph

Daily Weather History Graph

Search for Another Location

Airport or City:

Trip Planner

Search our weather history database for the weather conditions in past years. The results will help you decide how hot, cold, wet, or windy it might be!

Date:

Astronomy

Jan. 08, 2013 Rise Set
Actual Time 11:53 AM AKST 1:45 PM AKST
Civil Twilight 9:50 AM AKST 3:48 PM AKST
Nautical Twilight 8:26 AM AKST 5:12 PM AKST
Astronomical Twilight 7:16 AM AKST 6:22 PM AKST
Moon 8:14 AM AKST (1/8) 11:15 AM AKST (1/8)
Length of Visible Light 5h 58m
Length of Day
1h 52m
Waning Crescent, 12% of the Moon is Illuminated
Jan 8
Waning Crescent
Jan 11
New
Jan 18
First Quarter
Jan 26
Full
Feb 3
Last Quarter

Hourly Weather History & Observations

Time (AKST) Temp. Dew Point Humidity Pressure Visibility Wind Dir Wind Speed Gust Speed Precip Events Conditions
12:16 AM -18.4 °F - N/A% 29.52 in 10.0 mi Calm Calm - N/A   Clear
12:36 AM -22.0 °F - N/A% 29.52 in 10.0 mi Calm Calm - N/A   Clear
12:56 AM -20.2 °F - N/A% 29.53 in 10.0 mi Calm Calm - N/A   Clear
1:16 AM -22.0 °F - N/A% 29.53 in 10.0 mi Calm Calm - N/A   Clear
1:36 AM -20.2 °F - N/A% 29.53 in 10.0 mi Calm Calm - N/A   Clear
1:56 AM -22.0 °F - N/A% 29.54 in 6.0 mi Calm Calm - N/A   Clear
2:16 AM -18.4 °F -29.2 °F 58% 29.54 in 10.0 mi Calm Calm - N/A   Clear
2:36 AM -23.8 °F - N/A% 29.54 in 9.0 mi Calm Calm - N/A   Clear
2:56 AM -23.8 °F - N/A% 29.55 in 10.0 mi Calm Calm - N/A   Clear
3:16 AM -23.8 °F - N/A% 29.55 in 8.0 mi Calm Calm - N/A   Clear
3:36 AM -22.0 °F -29.2 °F 69% 29.56 in 10.0 mi Calm Calm - N/A   Clear
3:56 AM -18.4 °F -20.2 °F 91% 29.56 in 10.0 mi Calm Calm - N/A   Clear
4:16 AM -23.8 °F - N/A% 29.57 in 9.0 mi Calm Calm - N/A   Clear
4:36 AM -20.2 °F -23.8 °F 83% 29.57 in 5.0 mi Calm Calm - N/A   Clear
4:56 AM -22.0 °F - N/A% 29.57 in 6.0 mi Calm Calm - N/A   Clear
5:16 AM -23.8 °F - N/A% 29.57 in 8.0 mi Calm Calm - N/A   Clear
5:36 AM -25.6 °F - N/A% 29.58 in 9.0 mi Calm Calm - N/A   Clear
5:56 AM -25.6 °F - N/A% 29.58 in 10.0 mi Calm Calm - N/A   Clear
6:16 AM -25.6 °F - N/A% 29.59 in 9.0 mi Calm Calm - N/A   Clear
6:36 AM -27.4 °F - N/A% 29.59 in 10.0 mi Calm Calm - N/A   Clear
6:56 AM -20.2 °F - N/A% 29.60 in 10.0 mi Calm Calm - N/A   Clear
7:16 AM -29.2 °F - N/A% 29.60 in 10.0 mi Calm Calm - N/A   Clear
7:36 AM -27.4 °F - N/A% 29.60 in 10.0 mi Calm Calm - N/A   Clear
7:56 AM -27.4 °F - N/A% 29.61 in 10.0 mi Calm Calm - N/A   Clear
8:16 AM -23.8 °F - N/A% 29.62 in 10.0 mi Calm Calm - N/A   Clear
8:36 AM -25.6 °F - N/A% 29.62 in 9.0 mi Calm Calm - N/A   Clear
8:56 AM -25.6 °F - N/A% 29.63 in 10.0 mi Calm Calm - N/A   Clear
9:16 AM -25.6 °F - N/A% 29.63 in 10.0 mi Calm Calm - N/A   Clear
9:56 AM -27.4 °F - N/A% 29.64 in 10.0 mi Calm Calm - N/A   Clear
10:16 AM -29.2 °F - N/A% 29.65 in 10.0 mi Calm Calm - N/A   Clear
10:56 AM -27.4 °F - N/A% 29.66 in 8.0 mi Calm Calm - N/A   Clear
11:16 AM -25.6 °F - N/A% 29.67 in 10.0 mi Calm Calm - N/A   Clear
11:36 AM -27.4 °F -27.4 °F 100% 29.67 in 10.0 mi Calm Calm - N/A   Clear
11:56 AM -29.2 °F - N/A% 29.68 in 9.0 mi Calm Calm - N/A   Clear
12:16 PM -22.0 °F - N/A% 29.69 in 10.0 mi Calm Calm - N/A   Clear
12:36 PM -29.2 °F - N/A% 29.69 in 10.0 mi Calm Calm - N/A   Clear
12:56 PM -29.2 °F - N/A% 29.70 in 7.0 mi Calm Calm - N/A   Clear
1:16 PM -27.4 °F - N/A% 29.70 in 8.0 mi Calm Calm - N/A   Clear
1:36 PM -27.4 °F - N/A% 29.71 in 9.0 mi Calm Calm - N/A   Clear
1:56 PM -29.2 °F - N/A% 29.71 in 8.0 mi Calm Calm - N/A   Clear
2:16 PM -31.0 °F - N/A% 29.72 in 9.0 mi Calm Calm - N/A   Clear
2:36 PM -29.2 °F - N/A% 29.72 in 5.0 mi Calm Calm - N/A   Clear
2:56 PM -31.0 °F - N/A% 29.73 in 10.0 mi Calm Calm - N/A   Clear
3:16 PM -29.2 °F - N/A% 29.73 in 10.0 mi Calm Calm - N/A   Clear
3:36 PM -31.0 °F - N/A% 29.73 in 10.0 mi Calm Calm - N/A   Clear
3:56 PM -27.4 °F - N/A% 29.74 in 8.0 mi Calm Calm - N/A   Clear
4:16 PM -31.0 °F - N/A% 29.73 in 10.0 mi Calm Calm - N/A   Clear
4:36 PM -25.6 °F - N/A% 29.74 in 10.0 mi Calm Calm - N/A   Clear
4:56 PM -32.8 °F - N/A% 29.74 in 10.0 mi Calm Calm - N/A   Clear
5:16 PM -31.0 °F - N/A% 29.74 in 10.0 mi Calm Calm - N/A   Clear
5:36 PM -32.8 °F - N/A% 29.74 in 10.0 mi Calm Calm - N/A   Clear
5:56 PM -31.0 °F - N/A% 29.75 in 10.0 mi Calm Calm - N/A   Clear
6:16 PM -29.2 °F - N/A% 29.76 in 10.0 mi Calm Calm - N/A   Clear
6:36 PM -31.0 °F - N/A% 29.76 in 10.0 mi Calm Calm - N/A   Clear
6:56 PM -32.8 °F - N/A% 29.76 in 10.0 mi Calm Calm - N/A   Clear
7:16 PM -31.0 °F - N/A% 29.77 in 10.0 mi Calm Calm - N/A   Clear
7:36 PM -32.8 °F - N/A% 29.77 in 10.0 mi Calm Calm - N/A   Scattered Clouds
7:56 PM -31.0 °F - N/A% 29.78 in 8.0 mi Calm Calm - N/A   Mostly Cloudy
8:16 PM -29.2 °F - N/A% 29.78 in 5.0 mi Calm Calm - N/A   Mostly Cloudy
8:36 PM -29.2 °F - N/A% 29.79 in 5.0 mi Calm Calm - N/A   Overcast
9:16 PM -27.4 °F - N/A% 29.80 in 9.0 mi Calm Calm - N/A   Scattered Clouds
9:36 PM -29.2 °F - N/A% 29.80 in 10.0 mi Calm Calm - N/A   Partly Cloudy
9:56 PM -29.2 °F - N/A% 29.81 in 9.0 mi Calm Calm - N/A   Clear
10:16 PM -29.2 °F - N/A% 29.81 in 9.0 mi Calm Calm - N/A   Clear
10:36 PM -29.2 °F - N/A% 29.82 in 8.0 mi Calm Calm - N/A   Scattered Clouds
10:56 PM -31.0 °F - N/A% 29.83 in 9.0 mi Calm Calm - N/A   Scattered Clouds
11:16 PM -29.2 °F - N/A% 29.83 in 10.0 mi Calm Calm - N/A   Mostly Cloudy
11:36 PM -31.0 °F - N/A% 29.84 in 9.0 mi Calm Calm - N/A   Overcast
11:56 PM -29.2 °F - N/A% 29.84 in 10.0 mi Calm Calm - N/A   Overcast